{"data":{"norad_id":53051,"intl_designator":"2022-077J","name":"STARLINK-4336","alt_names":[],"object_type":"PAYLOAD","status":"ACTIVE","operator":null,"country":"US","launch_date":"2022-07-11","launch_site_code":"AFWTR","launch_vehicle":null,"mission":null,"orbit_class":"UNKNOWN","rcs_meters":null,"size_class":null,"mass_kg":null,"dimensions":null,"purposes":["comms"],"wikipedia_slug":null,"has_3d_model":false,"image_url":null,"decayed_at":null,"tle_current":{"epoch":"2026-09-19T22:01:17.857056Z","epoch_age_seconds":119791,"freshness":"FRESH","line1":"1 53051U 22077J   26262.91756779  .00000195  00000+0  83622-5 0  9991","line2":"2 53051  97.2851  77.7867 0001458  88.5726 271.5684 15.33435480230200","mean_motion":15.3343548,"eccentricity":0.0001458,"inclination_deg":97.2851,"raan_deg":77.7867,"arg_perigee_deg":88.5726,"mean_anomaly_deg":271.5684,"bstar":8.3622e-6,"rev_number":23020,"period_min":93.906787653042,"perigee_km":464.57368674756,"apogee_km":466.569312146,"semimajor_km":6843.7084994468,"source":"CELESTRAK","updated_at":"2026-09-20T09:00:40.151393Z"}}}